DateTimeUTC,F1_A11,F1_S11,BsB_S11,BsG_S11,BsR_S11,BbsB_S11,BbsG_S11,BbsR_S11,BaB_A11,BaG_A11,BaR_A11,Tu_S11,T_S11,Uu_S11,U_S11,P_S11,T1_A11
2021-12-15T03:00:00Z,00000200,21000000,,,,,,,0000.18,0000.40,0000.39,20.5,27.4,,00.0,0641.6,31.2
2021-12-15T03:01:00Z,00000200,21000000,,,,,,,0000.32,0000.41,0000.10,20.5,27.4,,00.0,0641.6,31.1
2021-12-15T03:02:00Z,00000200,21000000,,,,,,,0000.68,0000.47,0000.41,20.4,27.4,,00.0,0641.6,31.2
2021-12-15T03:03:00Z,00000200,61000000,,,,,,,0000.72,0001.01,0001.06,20.4,27.4,,00.0,0641.6,31.2
2021-12-15T03:04:00Z,00000200,41000000,-000.61,0000.01,-000.29,0000.17,0000.12,0000.30,0000.94,0000.51,0000.06,20.6,27.2,,00.0,0642.4,31.2
2021-12-15T03:05:00Z,00000200,01000000,0000.27,0000.06,-000.26,0000.01,-000.01,-000.08,0000.16,0000.07,0000.30,20.7,27.1,,00.0,0642.5,31.2
2021-12-15T03:06:00Z,00000200,01000000,-000.16,-000.09,-000.10,0000.17,-000.18,-000.21,-000.00,0000.57,0000.10,20.7,27.1,,00.0,0642.5,31.2
2021-12-15T03:07:00Z,00000200,01000000,-000.48,-000.23,-000.21,0000.27,0000.24,-000.15,0000.56,-000.27,-000.01,20.8,27.2,,00.0,0642.5,31.2
2021-12-15T03:08:00Z,00000200,01000000,-000.09,-000.20,-000.03,0000.33,-000.15,0000.01,0000.07,0000.50,-000.08,20.8,27.2,,00.0,0642.4,31.2
2021-12-15T03:09:00Z,00000200,01000000,-000.37,0000.11,0000.02,0000.51,-000.27,0000.22,0000.30,0000.24,0000.46,20.8,27.2,,00.0,0642.4,31.2
2021-12-15T03:10:00Z,00000200,01000000,-000.66,0000.25,-000.33,0000.41,0000.16,0000.11,0000.18,0000.59,0000.48,20.8,27.2,,00.0,0642.4,31.2
2021-12-15T03:11:00Z,00000200,01000000,-000.08,0000.22,-000.35,0000.18,-000.20,-000.12,0000.41,-000.15,-000.25,20.7,27.2,,00.0,0642.4,31.1
2021-12-15T03:12:00Z,00000200,01000000,-000.22,0000.05,-000.14,-000.38,-000.11,-000.14,-000.14,0000.03,-000.16,20.6,27.1,,00.0,0642.3,31.2
2021-12-15T03:13:00Z,00000200,01000000,-000.39,0000.02,-000.13,0000.51,0000.33,0000.03,-000.16,-000.37,0000.23,20.5,27.1,,00.0,0642.3,31.1
2021-12-15T03:14:00Z,00000200,01000000,0000.51,-000.04,-000.37,0000.53,0000.00,-000.26,0000.23,0000.03,0000.19,20.5,27.1,,00.0,0642.3,31.1
2021-12-15T03:15:00Z,00000200,01000000,0000.00,-000.29,-000.11,0000.44,0000.25,0000.05,-000.18,0000.17,-000.40,20.4,27.0,,00.0,0642.2,31.1
2021-12-15T03:16:00Z,00000200,01000000,0000.09,-000.07,-000.05,-000.20,-000.11,0000.29,0000.17,0000.03,0000.30,20.3,27.0,,00.0,0642.2,31.1
2021-12-15T03:17:00Z,00000200,01000000,0000.55,0000.14,-000.17,0000.09,-000.09,0000.02,-000.09,0000.08,0000.11,20.4,26.9,,00.0,0642.2,31.1
2021-12-15T03:18:00Z,00000200,01000000,-000.58,0000.11,-000.31,0000.64,-000.41,-000.17,0000.22,0000.34,0000.13,20.4,26.9,,00.0,0642.2,31.1
2021-12-15T03:19:00Z,00000200,01000000,-001.03,-000.03,-000.19,0000.90,-000.04,-000.13,0000.42,0000.06,0000.18,20.4,26.9,,00.0,0642.2,31.2
2021-12-15T03:20:00Z,00000200,01000000,0000.11,0000.14,-000.09,-000.14,-000.04,-000.16,0000.13,-000.20,0000.07,20.5,26.9,,00.0,0642.2,31.1
2021-12-15T03:21:00Z,00000200,01000000,-000.38,-000.17,-000.03,0000.45,-000.19,0000.12,0000.05,0000.76,-000.24,20.5,26.9,,00.0,0642.2,31.1
2021-12-15T03:22:00Z,00000200,01000000,0000.76,-000.13,-000.01,0000.48,-000.02,-000.17,0000.06,0000.01,0000.37,20.6,27.0,,00.0,0642.2,31.2
2021-12-15T03:23:00Z,00000200,01000000,-000.26,0000.21,0000.41,0000.52,-000.09,0000.14,0000.23,0000.38,0000.18,20.6,27.0,,00.0,0642.2,31.2
2021-12-15T03:24:00Z,00000200,01000000,-000.70,-000.10,0000.02,0000.19,-000.07,0000.04,0000.02,-000.12,0000.14,20.7,27.0,,00.0,0642.2,31.2
2021-12-15T03:25:00Z,00000200,01000000,-000.15,0000.24,0000.07,0000.43,0000.01,0000.15,0000.13,0000.02,-000.30,20.7,27.0,,00.0,0642.3,31.2
2021-12-15T03:26:00Z,00000200,01000000,-000.12,0000.07,-000.10,-000.12,0000.04,0000.46,-000.04,-000.04,0000.16,20.8,27.0,,00.0,0642.3,31.2
2021-12-15T03:27:00Z,00000200,01000000,0000.46,0000.03,-000.30,0000.98,0000.09,0000.27,-000.43,-000.24,-000.43,20.8,27.1,,00.0,0642.3,31.2
2021-12-15T03:28:00Z,00000200,01000000,-000.89,-000.04,-000.33,-000.10,-000.12,0000.13,0000.19,-000.02,0000.21,20.8,27.1,,00.0,0642.3,31.2
2021-12-15T03:29:00Z,00000200,01000000,-000.27,-000.34,-000.10,0000.18,-000.01,-000.21,0000.07,0000.34,0000.29,20.7,27.1,,00.0,0642.3,31.2
2021-12-15T03:30:00Z,00000200,01000000,-000.49,-000.19,-000.28,-000.50,-000.15,-000.18,-000.14,-000.35,-000.16,20.6,27.1,,00.0,0642.2,31.2
2021-12-15T03:31:00Z,00000200,01000000,0000.18,-000.52,-000.31,0000.30,0000.13,-000.38,0000.20,0000.19,-000.00,20.6,27.0,,00.0,0642.2,31.1
2021-12-15T03:32:00Z,00000200,01000000,-000.08,-000.06,-000.14,0000.40,-000.08,0000.03,-000.03,0000.05,0000.21,20.6,27.0,,00.0,0642.2,31.2
2021-12-15T03:33:00Z,00000200,01000000,0000.14,-000.10,0000.04,0000.20,0000.12,0000.05,0000.02,-000.18,-000.39,20.6,27.0,,00.0,0642.2,31.2
2021-12-15T03:34:00Z,00000200,01000000,0000.08,-000.30,-000.06,0000.34,-000.36,0000.47,-000.88,-000.69,-000.55,20.7,27.0,,00.0,0642.3,31.1
2021-12-15T03:35:00Z,00000200,01000000,-000.68,-000.13,-000.19,-000.60,-000.21,0000.34,-000.23,-000.30,-000.22,20.7,27.0,,00.0,0642.3,31.2
2021-12-15T03:36:00Z,00000200,01000000,-000.18,0000.20,0000.05,0000.77,-000.08,0000.21,-000.48,-000.39,0000.24,20.8,27.0,,00.0,0642.3,31.2
2021-12-15T03:37:00Z,00000200,01000000,-000.41,0000.12,-000.39,0000.32,-000.17,0000.01,-000.09,0000.01,-000.38,20.8,27.0,,00.0,0642.3,31.2
2021-12-15T03:38:00Z,00000200,01000000,0000.18,-000.08,-000.00,0000.08,0000.16,0000.09,0000.16,-000.03,0000.04,20.8,27.1,,00.0,0642.3,31.2
2021-12-15T03:39:00Z,00000200,01000000,-000.32,0000.16,-000.42,0001.02,-000.32,-000.23,-000.23,0000.01,0000.03,20.9,27.1,,00.0,0642.3,31.2
2021-12-15T03:40:00Z,00000200,01000000,-000.68,-000.03,-000.12,0001.27,0000.20,0000.33,0000.16,-000.18,0000.01,20.9,27.1,,00.0,0642.4,31.2
2021-12-15T03:41:00Z,00000200,01000000,-000.09,0000.16,0000.02,0000.04,-000.15,0000.21,-000.23,0000.08,-000.29,21.0,27.1,,00.0,0642.4,31.2
2021-12-15T03:42:00Z,00000200,01000000,-000.13,-000.04,0000.01,0000.33,-000.13,0000.40,-000.13,-000.28,0000.04,20.9,27.2,,00.0,0642.3,31.2
2021-12-15T03:43:00Z,00000200,01000000,-000.70,-000.20,-000.01,0000.06,0000.24,-000.04,0000.53,0000.48,0000.46,20.9,27.2,,00.0,0642.3,31.2
2021-12-15T03:44:00Z,00000200,01000000,-000.43,0000.03,0000.08,-000.23,-000.24,0000.18,0000.21,-000.19,0000.05,20.8,27.1,,00.0,0642.2,31.2
2021-12-15T03:45:00Z,00000200,01000000,-000.07,-000.07,0000.39,0000.02,-000.12,0000.29,0000.15,0000.45,0000.03,20.7,27.1,,00.0,0642.2,31.2
2021-12-15T03:46:00Z,00000200,01000000,-000.11,-000.08,-000.18,-000.03,-000.06,0000.04,0000.07,0000.32,-000.01,20.7,27.1,,00.0,0642.2,31.2
2021-12-15T03:47:00Z,00000200,01000000,-001.10,0000.10,-000.06,-000.34,0000.18,-000.14,0000.34,-000.02,0000.39,20.7,27.0,,00.0,0642.2,31.2
2021-12-15T03:48:00Z,00000200,01000000,0000.26,-000.28,-000.49,-000.24,-000.31,0000.06,-000.24,-000.13,-000.35,20.7,27.0,,00.0,0642.2,31.2
2021-12-15T03:49:00Z,00000200,01000000,0000.37,-000.09,-000.14,-000.14,-000.17,0000.13,0000.19,0000.08,0000.54,20.7,27.0,,00.0,0642.2,31.2
2021-12-15T03:50:00Z,00000200,01000000,0000.66,0000.07,-000.05,0000.26,-000.12,0000.32,0000.36,-000.14,-000.13,20.8,27.1,,00.0,0642.2,31.2
2021-12-15T03:51:00Z,00000200,01000000,0000.16,-000.33,0000.07,0000.37,0000.06,0000.36,0000.10,0000.88,-000.00,20.8,27.1,,00.0,0642.1,31.2
2021-12-15T03:52:00Z,00000200,01000000,-000.28,-000.15,-000.47,0000.77,0000.20,-000.20,0000.23,0000.07,0000.42,20.9,27.1,,00.0,0642.1,31.2
2021-12-15T03:53:00Z,00000200,01000000,0000.08,0000.41,0000.07,0000.21,0000.15,-000.01,0000.40,0000.64,0000.61,20.9,27.1,,00.0,0642.1,31.3
2021-12-15T03:54:00Z,00000200,01000000,-000.74,-000.40,-000.04,-000.00,0000.02,0000.06,0000.10,-000.36,-000.27,20.9,27.2,,00.0,0642.1,31.3
2021-12-15T03:55:00Z,00000200,01000000,-000.86,0000.15,-000.05,0000.41,0000.17,-000.24,0000.07,0000.45,0000.04,21.0,27.2,,00.0,0642.1,31.3
2021-12-15T03:56:00Z,00000200,01000000,-000.78,-000.01,-000.03,-000.07,0000.25,0000.18,-000.10,-000.11,0000.09,21.0,27.2,,00.0,0642.1,31.2
2021-12-15T03:57:00Z,00000200,41000000,,,,,,,-000.62,-000.88,-000.85,21.0,27.2,,00.0,0642.0,31.2
2021-12-15T03:58:00Z,00000200,61000000,,,,,,,-000.11,0000.09,-000.03,20.6,27.3,,00.0,0641.2,31.2
2021-12-15T03:59:00Z,00000200,21000000,,,,,,,0000.39,0000.50,0000.48,20.5,27.4,,00.0,0641.2,31.2
